Vertical_Velocity
0 -1 -1 -2 -0 3 3 9 -3 3 1 -1 8 0 1 -2 -2 -0 1 2 2 -0 3 -0 2 2 1 1 -16 1 1 -1 1 6 -1 -1 1 -2 -1 0 1 2 -1 -1 -1 0 -1
-3 -3 -3 -1 2 -1 -3 1 17 -0 4 0 2 5 -1 -1 -0 -0 -1 2 2 0 1 2 1 3 2 -2 -0 7 -2 1 4 2 3 0 -1 -1 -1 -1 1 1 2 -2 -3 -3 0
-0 -3 -2 -1 -2 -3 -1 -0 -1 17 2 1 1 1 -1 -1 -2 0 -3 1 1 1 -0 1 1 2 -0 -24 -1 2 -1 -1 2 5 -1 2 0 1 4 -0 1 0 0 -1 -1 -3 -2
-1 -1 1 -3 -3 -2 -2 -4 0 3 14 3 4 2 5 6 3 -1 -1 -0 2 3 1 1 2 2 -12 1 -4 -4 2 -2 -5 -1 1 0 -1 1 10 -1 -2 1 2 -0 -3 2 -6
-4 -3 -0 -1 2 -2 -3 -2 -2 -1 10 12 2 8 -3 2 3 -1 1 -1 5 1 1 1 -2 1 -12 -1 -4 1 2 1 2 4 -2 6 4 -1 2 2 1 3 -0 1 -5 -1 -0
-4 -2 -5 -2 -1 -1 0 -3 -7 -1 -2 6 5 2 6 8 5 1 -1 8 9 2 1 2 5 0 -1 -3 -1 1 2 4 -0 2 3 5 1 0 2 4 -4 -1 0 0 -1 -1 -0
-3 -5 -9 -0 -5 -2 -1 1 -4 -1 -3 2 4 5 6 13 -0 3 1 11 -0 -1 4 -9 -4 -3 2 1 3 1 4 1 3 1 -1 0 2 -2 -6 -2 -0 1 2 1 -1 -3 1
-9 4 -6 -4 6 -9 0 -1 -1 -4 1 6 11 3 7 12 6 6 7 -8 -2 3 -2 -4 -0 2 5 1 1 4 7 -3 1 -1 1 -1 -2 -5 -0 1 2 2 2 -7 -4 -1 10
-3 -5 -2 -0 -1 -2 1 -2 -1 -4 -1 1 -12 7 4 18 11 16 -5 -1 -1 -0 1 -4 -0 -1 -13 6 -5 -1 1 2 -1 2 -0 -1 -5 1 2 0 5 -1 1 -2 1 -2 -3
1 -2 4 -4 -2 -6 5 -5 -0 0 3 2 0 4 8 40 33 4 -2 2 -3 -4 -3 -7 2 -0 4 2 -3 -3 -5 -10 4 -5 -0 -2 -8 1 1 -0 1 6 -2 1 1 4 -3
-4 -4 -6 1 -6 -4 -2 -2 8 5 10 0 4 19 16 28 -12 -7 -21 -3 -2 -2 -6 -4 5 3 2 -2 2 2 3 18 -2 -3 1 -15 -0 2 6 -11 -0 -10 0 -1 -0 1 7
-6 2 -2 -9 -0 7 12 2 -6 1 -3 -4 -4 -19 11 25 6 5 2 -2 -3 -11 -15 3 1 0 3 1 0 0 0 12 2 4 4 -5 -0 0 -8 -4 -0 -1 4 1 1 2 10
0 -4 4 -7 4 -6 13 5 0 -5 -3 -5 5 -12 37 -14 -24 -7 4 -4 -4 -4 -4 3 -0 1 -0 1 2 1 0 4 -1 6 2 1 -2 -0 1 3 5 10 4 2 6 7 -6
2 3 -0 -1 -3 10 -0 -4 -8 -18 -1 2 -14 -3 -6 8 -4 8 -5 -3 -4 -5 -2 -0 -1 2 -1 -2 -1 0 1 1 2 2 1 0 2 -0 -3 -5 -8 -6 -4 -3 -3 -2 -4
1 4 -6 3 0 4 1 -7 -11 21 -1 8 -1 1 16 11 -0 8 -8 2 -12 -3 -6 -2 4 1 1 2 -2 4 1 -1 -3 -4 1 0 -5 3 2 -1 -12 2 6 -21 3 -0 4
-1 0 1 2 6 -4 -9 -4 4 18 12 6 -2 2 31 5 0 6 -1 -4 -1 -2 -2 0 -3 -1 -0 -1 5 4 0 -5 -2 -3 -1 -4 -1 -2 -3 5 0 -4 -4 7 6 0 -1
-2 0 -3 -1 4 -1 -2 -9 13 1 16 -5 8 -1 9 8 16 14 -1 -2 -0 -0 -6 -5 -2 1 -2 -2 -1 -1 -4 -6 0 1 0 -1 3 -1 2 1 -7 11 4 1 0 -2 -2
-1 2 0 5 -4 -3 3 -3 -4 11 24 -10 -10 3 21 9 2 -1 -1 -3 -2 1 1 -0 -2 0 -1 -1 0 1 -3 -2 -1 -4 -1 -7 -0 -0 -15 -1 -2 -4 -7 -3 0 -3 -1
-0 -1 3 1 -4 -2 2 0 8 2 20 -1 7 2 50 -11 -3 2 4 1 -2 1 0 2 -0 -1 0 -1 1 -1 -0 -5 0 -2 -8 -3 -1 0 2 10 7 2 -2 -2 0 0 -5
2 -0 -3 2 -8 -3 4 -3 -1 2 10 6 2 -1 16 20 1 -8 -1 -0 2 -0 -0 0 -1 5 4 2 0 -1 -1 -2 1 -2 2 -1 0 -1 -7 -3 -3 4 2 1 1 6 -8
3 1 2 -2 -4 -9 7 -2 -1 6 9 1 -6 -1 -7 2 6 0 -0 -2 1 2 1 2 2 1 -2 1 2 -1 -0 -2 0 -0 2 -2 1 4 -4 -2 3 -2 -2 -0 3 -14 3
2 3 1 2 -10 1 -1 8 -3 -6 -1 10 -0 -3 6 1 2 0 1 -2 -2 2 -3 -0 4 -1 1 1 -6 -1 -1 -0 -4 6 0 1 -3 1 -6 -3 2 1 -0 0 -0 -0 3
3 -3 8 -3 3 -2 -2 -0 1 -12 7 2 10 6 -12 1 3 2 -4 -1 -6 -0 -1 -3 -5 5 3 -10 -5 -11 0 -0 0 -5 -1 0 1 1 -3 -0 1 8 -11 -3 -3 0 -7
-3 -4 6 -1 4 -4 -2 4 -7 0 27 10 -3 2 -3 1 0 -5 -1 -0 -1 -3 1 -2 5 5 -4 5 3 8 5 2 2 1 -4 -1 1 1 -1 0 -0 -3 -1 -5 -5 -3 0
-1 7 1 0 3 1 -5 -1 -3 7 12 2 2 -0 2 0 -4 5 3 -1 2 -1 2 3 -2 -6 -1 4 1 1 -0 2 -2 -1 2 -1 0 -0 2 0 -1 4 3 -6 -7 -9 -3
1 1 4 -0 -3 -5 -8 -3 4 8 8 -3 3 1 10 -6 -2 -6 -1 -2 -1 -0 2 -0 2 -0 2 1 2 -0 -2 -1 -1 -2 1 1 2 2 -1 2 1 2 2 -1 -1 -7 -4
1 4 3 -3 -1 -2 -2 0 -2 -1 -2 8 1 6 0 -3 1 1 -2 -6 -0 0 -1 -0 -2 1 5 0 1 0 -1 -0 -1 -0 -0 1 1 -1 -0 -0 -9 -2 0 -1 -4 -17 0
-4 1 3 -2 -2 -3 -3 -2 -0 -5 -0 6 -15 1 -2 -1 1 1 -1 -3 -1 1 -1 0 2 3 2 3 0 -2 0 -2 1 -2 -2 -3 -2 -1 1 0 -8 1 -1 -1 -6 -0 -0
-1 -1 1 -1 -5 -2 -1 -1 -3 -1 -0 5 11 -1 2 -4 -2 -1 -4 2 3 -1 -4 2 -2 -0 -3 -1 1 0 0 1 -1 -2 -1 -4 -7 -6 -9 -11 -3 -1 0 1 1 0 -0
Height
1493 1490 1488 1485 1483 1480 1479 1478 1478 1477 1477 1477 1478 1478 1477 1477 1477 1478 1478 1478 1478 1479 1479 1477 1477 1477 1478 1479 1474 1475 1475 1475 1476 1478 1481 1485 1487 1489 1491 1489 1488 1487 1484 1484 1484 1484 1483
1491 1488 1485 1481 1479 1475 1474 1472 1472 1472 1472 1472 1472 1472 1473 1474 1474 1475 1476 1476 1476 1477 1477 1477 1476 1476 1477 1479 1472 1473 1474 1476 1477 1479 1480 1483 1486 1487 1489 1488 1488 1484 1483 1483 1482 1481 1481
1490 1486 1482 1478 1474 1470 1468 1467 1465 1464 1465 1466 1467 1468 1469 1470 1470 1472 1473 1474 1474 1475 1476 1476 1476 1475 1475 1469 1470 1470 1473 1476 1478 1480 1481 1482 1485 1487 1487 1486 1485 1482 1483 1480 1478 1479 1478
1490 1485 1480 1475 1471 1467 1464 1461 1460 1457 1457 1459 1461 1462 1464 1465 1467 1468 1469 1471 1473 1474 1475 1475 1475 1474 1470 1467 1467 1468 1470 1474 1477 1479 1481 1482 1483 1486 1486 1485 1483 1483 1483 1484 1472 1472 1473
1486 1481 1477 1472 1468 1464 1460 1456 1454 1452 1450 1451 1453 1457 1459 1461 1462 1464 1466 1469 1471 1473 1474 1474 1475 1474 1467 1465 1465 1466 1469 1472 1474 1478 1480 1482 1482 1484 1485 1485 1484 1481 1481 1481 1476 1469 1469
1483 1479 1474 1469 1464 1460 1456 1452 1449 1446 1444 1442 1445 1450 1453 1456 1458 1461 1464 1467 1468 1470 1472 1474 1473 1476 1466 1464 1464 1464 1466 1471 1473 1476 1479 1480 1481 1481 1483 1484 1479 1480 1484 1481 1478 1468 1468
1481 1477 1471 1466 1460 1455 1451 1448 1444 1441 1439 1438 1436 1442 1446 1450 1453 1456 1461 1465 1469 1471 1467 1465 1464 1463 1462 1462 1463 1463 1464 1469 1472 1474 1478 1477 1479 1476 1477 1481 1481 1483 1482 1480 1479 1471 1472
1478 1473 1468 1463 1457 1451 1446 1442 1438 1435 1433 1431 1428 1434 1439 1444 1447 1451 1455 1458 1461 1464 1462 1460 1461 1461 1461 1461 1462 1462 1464 1469 1471 1474 1476 1479 1475 1473 1474 1478 1480 1481 1481 1478 1477 1473 1471
1475 1470 1464 1458 1453 1447 1442 1436 1432 1429 1427 1424 1425 1426 1431 1438 1441 1443 1448 1454 1459 1462 1462 1456 1454 1456 1458 1461 1461 1459 1462 1465 1467 1472 1473 1473 1466 1465 1471 1474 1478 1479 1481 1479 1477 1474 1469
1471 1465 1459 1454 1447 1442 1436 1430 1426 1423 1421 1419 1418 1417 1423 1431 1437 1437 1444 1452 1457 1462 1471 1454 1452 1451 1453 1457 1457 1455 1458 1462 1466 1466 1470 1467 1464 1465 1468 1470 1474 1474 1472 1474 1475 1477 1475
1467 1461 1455 1449 1442 1437 1431 1425 1421 1417 1414 1410 1409 1409 1413 1418 1422 1432 1439 1448 1457 1463 1485 1449 1449 1449 1450 1454 1452 1452 1456 1459 1458 1462 1468 1461 1462 1461 1463 1462 1468 1467 1467 1469 1469 1471 1472
1463 1456 1450 1444 1438 1432 1426 1420 1414 1410 1407 1406 1404 1403 1406 1407 1420 1427 1435 1445 1457 1470 1473 1445 1446 1448 1450 1450 1450 1451 1453 1457 1456 1458 1457 1455 1456 1457 1456 1457 1463 1463 1467 1468 1466 1467 1459
1459 1452 1445 1440 1432 1426 1421 1413 1406 1402 1398 1397 1397 1397 1399 1398 1411 1423 1431 1442 1457 1467 1441 1443 1442 1446 1448 1448 1449 1449 1453 1451 1451 1453 1454 1455 1452 1454 1454 1456 1457 1463 1465 1463 1463 1460 1447
1454 1447 1441 1434 1427 1421 1414 1405 1397 1390 1384 1385 1388 1391 1392 1392 1406 1417 1425 1438 1458 1434 1439 1435 1439 1444 1447 1445 1445 1446 1448 1449 1448 1451 1451 1449 1449 1445 1448 1446 1449 1453 1454 1454 1454 1459 1450
1449 1442 1437 1430 1423 1417 1408 1400 1391 1382 1380 1380 1385 1387 1391 1386 1401 1414 1422 1431 1429 1423 1425 1431 1437 1442 1442 1440 1443 1445 1442 1439 1438 1445 1448 1446 1444 1437 1439 1437 1442 1448 1449 1442 1446 1444 1440
1445 1438 1433 1426 1420 1413 1406 1398 1386 1380 1380 1380 1380 1381 1382 1387 1400 1412 1419 1422 1418 1417 1420 1426 1433 1434 1433 1436 1442 1442 1439 1433 1434 1433 1438 1437 1445 1433 1433 1437 1440 1441 1439 1444 1445 1445 1447
1441 1435 1429 1423 1416 1410 1403 1393 1384 1377 1376 1378 1381 1384 1381 1387 1400 1410 1411 1414 1415 1416 1416 1424 1427 1429 1428 1433 1435 1438 1434 1428 1425 1425 1427 1434 1439 1437 1435 1431 1430 1436 1437 1436 1433 1437 1434
1437 1431 1425 1419 1413 1406 1400 1392 1384 1378 1375 1379 1380 1384 1376 1386 1398 1404 1407 1411 1410 1414 1417 1420 1423 1423 1426 1428 1430 1436 1434 1424 1419 1424 1432 1433 1434 1430 1421 1420 1420 1419 1420 1427 1426 1433 1426
1434 1427 1422 1416 1410 1404 1397 1390 1383 1375 1376 1379 1378 1377 1377 1383 1391 1397 1405 1407 1410 1414 1416 1418 1420 1422 1420 1421 1426 1428 1424 1413 1415 1421 1423 1425 1425 1421 1413 1418 1420 1416 1414 1415 1420 1420 1413
1430 1425 1419 1414 1409 1402 1396 1389 1379 1375 1371 1372 1374 1376 1379 1387 1388 1391 1398 1405 1410 1412 1414 1416 1417 1419 1419 1419 1420 1419 1418 1408 1409 1412 1415 1418 1419 1410 1398 1395 1399 1406 1406 1413 1416 1417 1403
1427 1422 1416 1412 1408 1401 1394 1388 1380 1369 1364 1366 1371 1375 1375 1378 1385 1389 1396 1400 1404 1408 1412 1412 1413 1413 1413 1414 1414 1416 1412 1407 1407 1409 1414 1418 1410 1404 1396 1392 1393 1391 1391 1398 1405 1397 1400
1424 1419 1414 1410 1406 1400 1395 1389 1381 1373 1366 1369 1368 1368 1373 1378 1383 1390 1396 1399 1399 1403 1407 1409 1408 1407 1409 1408 1405 1405 1404 1405 1404 1410 1411 1413 1406 1400 1387 1371 1372 1380 1388 1389 1393 1393 1390
1421 1416 1411 1407 1403 1398 1392 1386 1380 1376 1372 1367 1364 1365 1370 1377 1383 1389 1389 1392 1395 1398 1402 1401 1403 1405 1401 1401 1403 1400 1403 1403 1400 1400 1406 1410 1405 1394 1373 1368 1373 1377 1366 1375 1379 1384 1385
1418 1413 1408 1404 1400 1395 1390 1385 1380 1375 1372 1368 1367 1368 1372 1380 1381 1382 1389 1392 1394 1396 1397 1397 1399 1399 1397 1396 1396 1396 1398 1398 1394 1393 1394 1398 1398 1392 1377 1373 1368 1363 1360 1363 1371 1375 1382
1415 1410 1406 1401 1396 1393 1387 1382 1378 1372 1368 1366 1366 1369 1369 1376 1380 1385 1388 1390 1392 1394 1395 1393 1394 1395 1395 1396 1397 1392 1394 1394 1391 1387 1389 1390 1389 1384 1379 1377 1363 1361 1365 1366 1370 1373 1376
1413 1408 1403 1399 1395 1390 1386 1382 1377 1370 1365 1364 1366 1368 1370 1373 1378 1378 1384 1386 1389 1390 1391 1389 1390 1391 1394 1392 1392 1388 1391 1385 1385 1383 1387 1390 1389 1387 1384 1382 1371 1362 1362 1363 1372 1373 1358
1411 1407 1401 1397 1393 1389 1385 1380 1375 1370 1369 1367 1365 1369 1372 1373 1375 1377 1380 1383 1384 1386 1389 1390 1390 1387 1387 1387 1387 1388 1388 1384 1385 1381 1384 1387 1385 1385 1386 1382 1377 1363 1364 1367 1382 1368 1354
1409 1404 1400 1396 1392 1388 1384 1380 1377 1373 1369 1367 1367 1370 1373 1373 1374 1376 1377 1378 1382 1384 1385 1388 1388 1384 1382 1382 1385 1382 1381 1382 1383 1379 1375 1377 1378 1381 1383 1387 1389 1360 1359 1363 1362 1358 1357
1407 1402 1398 1394 1391 1386 1382 1379 1377 1373 1369 1367 1367 1371 1372 1375 1376 1376 1377 1377 1379 1380 1382 1383 1383 1382 1378 1380 1383 1378 1376 1383 1383 1382 1376 1381 1375 1377 1377 1376 1364 1362 1362 1361 1359 1359 1357